• In Denmark
  • List of Countries
  • For 7 days
  • Water Temperature
  • Satellite Maps
  • Weather Map
  • Weather Widgets
  • user-avatar
    Login

    Hourly Weather Newcastle

    Today, 22 July, Saturday

    Time Temperature Precipitation Wind Pressure Humidity
    00:00 +6°C° 0 mm 4 mps 767 mmHg 86%
    01:00 +6°C° 0 mm 4 mps 767 mmHg 87%
    02:00 +5°C° 0 mm 4 mps 767 mmHg 87%
    03:00 +5°C° 0 mm 3 mps 767 mmHg 87%
    04:00 +5°C° 0 mm 4 mps 766 mmHg 89%
    05:00 +5°C° 0 mm 3 mps 766 mmHg 89%
    06:00 +4°C° 0 mm 3 mps 767 mmHg 89%
    07:00 +4°C° 0 mm 3 mps 767 mmHg 89%
    08:00 +8°C° 0 mm 3 mps 767 mmHg 77%
    09:00 +11°C° 0 mm 3 mps 767 mmHg 66%
    10:00 +13°C° 0 mm 3 mps 767 mmHg 55%
    11:00 +16°C° 0 mm 3 mps 766 mmHg 49%
    12:00 +17°C° 0 mm 3 mps 765 mmHg 44%
    13:00 +19°C° 0 mm 2 mps 765 mmHg 38%
    14:00 +19°C° 0 mm 2 mps 764 mmHg 41%
    15:00 +18°C° 0 mm 2 mps 764 mmHg 44%
    16:00 +18°C° 0 mm 2 mps 764 mmHg 47%
    17:00 +16°C° 0 mm 3 mps 764 mmHg 52%
    18:00 +13°C° 0 mm 3 mps 764 mmHg 56%
    19:00 +11°C° 0 mm 4 mps 764 mmHg 60%
    20:00 +10°C° 0 mm 4 mps 764 mmHg 62%
    21:00 +8°C° 0 mm 4 mps 764 mmHg 64%
    22:00 +8°C° 0 mm 4 mps 764 mmHg 65%
    23:00 +7°C° 0 mm 4 mps 764 mmHg 65%

    Tomorrow, 23 July, Sunday

    Time Temperature Precipitation Wind Pressure Humidity
    00:00 +7°C° 0 mm 4 mps 764 mmHg 65%
    01:00 +7°C° 0 mm 4 mps 764 mmHg 65%
    02:00 +7°C° 0 mm 5 mps 764 mmHg 64%
    03:00 +7°C° 0 mm 5 mps 764 mmHg 63%
    04:00 +7°C° 0 mm 5 mps 763 mmHg 62%
    05:00 +7°C° 0 mm 5 mps 764 mmHg 60%
    06:00 +7°C° 0 mm 5 mps 764 mmHg 59%
    07:00 +7°C° 0 mm 5 mps 764 mmHg 57%
    08:00 +9°C° 0 mm 6 mps 764 mmHg 51%
    09:00 +11°C° 0 mm 6 mps 764 mmHg 45%
    10:00 +14°C° 0 mm 6 mps 764 mmHg 40%
    11:00 +16°C° 0 mm 6 mps 763 mmHg 37%
    12:00 +19°C° 0 mm 6 mps 762 mmHg 34%
    13:00 +20°C° 0 mm 5 mps 761 mmHg 32%
    14:00 +20°C° 0 mm 5 mps 761 mmHg 34%
    15:00 +20°C° 0 mm 5 mps 761 mmHg 37%
    16:00 +20°C° 0 mm 5 mps 761 mmHg 39%
    17:00 +17°C° 0 mm 5 mps 761 mmHg 42%
    18:00 +15°C° 0 mm 5 mps 762 mmHg 45%
    19:00 +13°C° 0 mm 5 mps 762 mmHg 48%
    20:00 +13°C° 0 mm 5 mps 762 mmHg 49%
    21:00 +13°C° 0 mm 5 mps 763 mmHg 49%
    22:00 +12°C° 0 mm 5 mps 763 mmHg 49%
    23:00 +12°C° 0 mm 5 mps 763 mmHg 49%

    Day after tomorrow, 24 July, Monday

    Time Temperature Precipitation Wind Pressure Humidity
    00:00 +11°C° 0 mm 6 mps 763 mmHg 49%
    01:00 +10°C° 0 mm 6 mps 763 mmHg 49%
    02:00 +10°C° 0 mm 6 mps 763 mmHg 50%
    03:00 +10°C° 0 mm 5 mps 763 mmHg 51%
    04:00 +10°C° 0 mm 5 mps 763 mmHg 51%
    05:00 +9°C° 0 mm 5 mps 763 mmHg 53%
    06:00 +9°C° 0 mm 5 mps 763 mmHg 54%
    07:00 +9°C° 0 mm 5 mps 764 mmHg 56%
    08:00 +12°C° 0 mm 5 mps 764 mmHg 54%
    09:00 +14°C° 0 mm 5 mps 765 mmHg 52%
    10:00 +16°C° 0 mm 5 mps 765 mmHg 49%
    11:00 +17°C° 0 mm 5 mps 764 mmHg 46%
    12:00 +19°C° 0 mm 5 mps 764 mmHg 43%
    13:00 +20°C° 0 mm 5 mps 763 mmHg 40%
    14:00 +20°C° 0 mm 4 mps 763 mmHg 43%
    15:00 +20°C° 0 mm 3 mps 763 mmHg 45%
    16:00 +20°C° 0 mm 2 mps 763 mmHg 47%
    17:00 +18°C° 0 mm 3 mps 763 mmHg 51%
    18:00 +16°C° 0 mm 3 mps 764 mmHg 55%
    19:00 +13°C° 0 mm 3 mps 765 mmHg 59%
    20:00 +12°C° 0 mm 4 mps 765 mmHg 62%
    21:00 +11°C° 0 mm 4 mps 766 mmHg 64%
    22:00 +11°C° 0 mm 4 mps 766 mmHg 67%
    23:00 +10°C° 0 mm 4 mps 766 mmHg 70%

    25 July, Tuesday

    Time Temperature Precipitation Wind Pressure Humidity
    00:00 +8°C° 0 mm 4 mps 766 mmHg 73%
    01:00 +8°C° 0 mm 4 mps 766 mmHg 77%
    02:00 +8°C° 0 mm 4 mps 766 mmHg 78%
    03:00 +7°C° 0 mm 4 mps 766 mmHg 80%
    04:00 +7°C° 0 mm 4 mps 766 mmHg 82%
    05:00 +7°C° 0 mm 4 mps 766 mmHg 82%
    06:00 +6°C° 0 mm 4 mps 767 mmHg 83%
    07:00 +6°C° 0 mm 4 mps 767 mmHg 83%
    08:00 +10°C° 0 mm 3 mps 767 mmHg 74%
    09:00 +12°C° 0 mm 3 mps 767 mmHg 65%
    10:00 +16°C° 0 mm 3 mps 767 mmHg 56%
    11:00 +17°C° 0 mm 3 mps 767 mmHg 51%
    12:00 +18°C° 0 mm 3 mps 766 mmHg 45%
    13:00 +20°C° 0 mm 2 mps 765 mmHg 40%
    14:00 +20°C° 0 mm 2 mps 765 mmHg 43%
    15:00 +19°C° 0 mm 2 mps 764 mmHg 45%
    16:00 +19°C° 0 mm 2 mps 764 mmHg 48%
    17:00 +17°C° 0 mm 2 mps 764 mmHg 53%
    18:00 +14°C° 0 mm 3 mps 765 mmHg 58%
    19:00 +12°C° 0 mm 4 mps 765 mmHg 63%
    20:00 +12°C° 0 mm 4 mps 765 mmHg 63%
    21:00 +12°C° 0 mm 4 mps 765 mmHg 62%
    22:00 +12°C° 0 mm 4 mps 765 mmHg 62%
    23:00 +12°C° 0 mm 5 mps 765 mmHg 61%

    26 July, Wednesday

    Time Temperature Precipitation Wind Pressure Humidity
    00:00 +12°C° 0 mm 5 mps 764 mmHg 61%
    01:00 +11°C° 0 mm 6 mps 764 mmHg 60%
    02:00 +13°C° 0 mm 6 mps 763 mmHg 58%
    03:00 +13°C° 0 mm 6 mps 763 mmHg 57%
    04:00 +12°C° 0 mm 7 mps 762 mmHg 55%
    05:00 +12°C° 0 mm 7 mps 763 mmHg 55%
    06:00 +12°C° 0 mm 7 mps 763 mmHg 54%
    07:00 +13°C° 0 mm 6 mps 763 mmHg 54%
    08:00 +15°C° 0 mm 7 mps 763 mmHg 49%
    09:00 +17°C° 0 mm 7 mps 762 mmHg 45%
    10:00 +20°C° 0 mm 7 mps 762 mmHg 41%
    11:00 +21°C° 0 mm 7 mps 762 mmHg 39%
    12:00 +23°C° 0 mm 7 mps 761 mmHg 37%
    13:00 +24°C° 0 mm 7 mps 760 mmHg 35%
    14:00 +23°C° 0 mm 7 mps 760 mmHg 38%
    15:00 +21°C° 0 mm 7 mps 760 mmHg 41%
    16:00 +20°C° 0 mm 7 mps 760 mmHg 45%
    17:00 +18°C° 0 mm 7 mps 761 mmHg 49%
    18:00 +16°C° 0 mm 7 mps 761 mmHg 53%
    19:00 +15°C° 0 mm 7 mps 762 mmHg 56%
    20:00 +14°C° 0 mm 7 mps 762 mmHg 59%
    21:00 +12°C° 0 mm 7 mps 763 mmHg 63%
    22:00 +11°C° 0 mm 7 mps 763 mmHg 66%
    23:00 +11°C° 0 mm 7 mps 763 mmHg 66%

    27 July, Thursday

    Time Temperature Precipitation Wind Pressure Humidity
    00:00 +10°C° 0 mm 7 mps 763 mmHg 66%
    01:00 +10°C° 0 mm 6 mps 764 mmHg 66%
    02:00 +9°C° 0 mm 6 mps 764 mmHg 68%
    03:00 +9°C° 0 mm 6 mps 764 mmHg 70%
    04:00 +8°C° 0 mm 6 mps 764 mmHg 72%
    05:00 +8°C° 0.1 mm 6 mps 765 mmHg 74%
    06:00 +7°C° 0.1 mm 6 mps 766 mmHg 77%
    07:00 +7°C° 0.1 mm 6 mps 766 mmHg 79%
    08:00 +9°C° 0 mm 6 mps 767 mmHg 71%
    09:00 +11°C° 0 mm 6 mps 767 mmHg 63%
    10:00 +13°C° 0 mm 6 mps 767 mmHg 54%
    11:00 +14°C° 0 mm 6 mps 767 mmHg 50%
    12:00 +15°C° 0 mm 6 mps 767 mmHg 45%
    13:00 +15°C° 0 mm 6 mps 766 mmHg 40%
    14:00 +15°C° 0 mm 6 mps 766 mmHg 44%
    15:00 +15°C° 0 mm 6 mps 767 mmHg 47%
    16:00 +14°C° 0 mm 6 mps 767 mmHg 51%
    17:00 +12°C° 0.1 mm 5 mps 768 mmHg 59%
    18:00 +10°C° 0.1 mm 5 mps 768 mmHg 67%
    19:00 +8°C° 0.1 mm 5 mps 769 mmHg 74%
    20:00 +8°C° 0 mm 4 mps 769 mmHg 77%
    21:00 +7°C° 0 mm 4 mps 769 mmHg 79%
    22:00 +7°C° 0 mm 4 mps 770 mmHg 82%
    23:00 +7°C° 0 mm 3 mps 769 mmHg 83%
    Show more